Regional Weather Roundup
Issued by NWS Mobile, AL

Home | Current Version | Previous Version | Text Only | Print | Product List | Glossary On
Versions: 1 2 3 4 5 6 7 8 9 10 11 12 13 14 15 16 17 18 19 20 21 22 23 24 25 26 27 28 29 30 31 32 33 34 35 36 37 38 39 40 41 42 43 44 45 46 47 48 49 50
000
ASUS44 KMOB 270810
RWRMOB
REGIONAL WEATHER ROUNDUP
NATIONAL WEATHER SERVICE MOBILE AL
200 AM CST TUE JAN 27 2015

NOTE: "FAIR" INDICATES FEW OR NO CLOUDS BELOW 12,000 FEET WITH NO
      SIGNIFICANT WEATHER AND/OR OBSTRUCTIONS TO VISIBILITY.

  * THESE STATIONS ARE PART OF THE UNIVERSITY OF SOUTH ALABAMA
    MESONET AND ARE NOT UNDER NWS OR FAA QUALITY CONTROL.

ALZ061>064-270900-
COASTAL ALABAMA

CITY           SKY/WX    TMP DP  RH WIND       PRES   REMARKS
MOBILE REG APT CLEAR     42  32  67 W5        30.05F
BROOKLEY FIELD CLEAR     47  34  60 W3        30.07S
USA CAMPUS*    NOT AVBL
DOG RIVER*     NOT AVBL


CITY           SKY/WX    TMP DP  RH WIND       PRES   REMARKS
MOUNT VERNON*  NOT AVBL
SARALAND*      NOT AVBL
BAY MINETTE*   NOT AVBL
LOXLEY*        NOT AVBL
ROBERTSDALE*   NOT AVBL
FAIRHOPE*        N/A     46  36  66 NW5       30.06S
ELBERTA*         N/A     37  37 100 W3        30.05S
FOLEY*         NOT AVBL
GRAND BAY*     NOT AVBL
DAUPHIN ISLND* NOT AVBL
BON SCOUR NWR* NOT AVBL
GULF SHORES    CLEAR     34  33  97 W3        30.06F

$$

ALZ051>060-270900-
INTERIOR SOUTHWEST AND SOUTH CENTRAL ALABAMA

CITY           SKY/WX    TMP DP  RH WIND       PRES   REMARKS
GREENVILLE     CLEAR     34  30  85 CALM      29.98F
EVERGREEN      CLEAR     32  30  92 CALM      30.02F
CASTLEBERRY*   NOT AVBL
ATMORE*          N/A     41  32  70 SW3       30.05F
DIXIE*           N/A     37  34  87 CALM      29.99S
ANDALUSIA/OPP  CLEAR     37  31  78 CALM      30.00F
ANDALUSIA*       N/A     37  32  81 W5        29.99F
FLORALA APT    CLEAR     36  32  85 CALM      30.03S
FLORALA*         N/A     34  34 100 CALM      29.99S

$$

FLZ001>006-270900-
WESTERN FLORIDA PANHANDLE

CITY           SKY/WX    TMP DP  RH WIND       PRES   REMARKS
PENSACOLA      CLEAR     44  34  67 W7        30.04F
NAS PENSACOLA  CLEAR     45  39  79 W5        30.05S
MILTON         CLEAR     38  32  79 W7        30.03F
WHTNG S FIELD  CLEAR     40  34  79 NW3       30.04F


CITY           SKY/WX    TMP DP  RH WIND       PRES   REMARKS
WALNUT HILL*   NOT AVBL
JAY*           NOT AVBL
CRESTVIEW      CLEAR     35  29  78 CALM      30.05R
VALPARAISO     CLEAR     38  33  82 NW7       30.04R
DESTIN         CLEAR     49  36  61 W5        30.04S

$$

MSZ076-079-270900-
INTERIOR SOUTHEAST MISSISSIPPI

CITY           SKY/WX    TMP DP  RH WIND       PRES   REMARKS
LEAKESVILLE*   NOT AVBL
AGRICOLA*      NOT AVBL

$$

MARINE OBSERVATIONS

STATION/POSITION TIME  TEMP    WIND        PRES    WAVE
                       AIR SEA DIR/SP/G            HT/PER
                 (UTC) (F)     (DEG/KT/KT) (MB)    (FT/S)
PASCAGOULA       0800   46     300/  3/  3 1017.9F
PETIT BOIS ISLND 0800   54     280/ 11/ 12 1018.4F
GRAND BAY        0700   45     300/  5     1019.0S
KATRINA CUT      0700   53     300/ 15     1018.6F
CEDAR POINT      0700   51     290/ 10     1018.3F
E DAUPHIN ISLAND 0700   54     280/ 10/ 14 1018.2R
MIDDLE BAY LIGHT 0700   51     280/ 10     1016.9F
USCG MOBILE BAY  0800   49 54  280/  7/ 10 1016.7F
STATE DOCKS      0800   47 50              1017.3F
MEAHER PARK      0700   46        CALM     1018.6S
WEEKS BAY        0700   41                   N/A
FORT MORGAN      0800   54     300/ 11/ 12 1017.6F
12 S ORANGE BCH  0800   59 62  290/ 21/ 27 1017.1S   4/ 8
PENSACOLA BAY    0800   47 57  280/  4/  7 1017.8F
64 S DAUPHIN ISL 0745   60 70  290/ 23/ 27 1018.5R   5/ 8

$$

SELECTED LOCATIONS ACROSS THE REGION

CITY           SKY/WX    TMP DP  RH WIND       PRES   REMARKS
NEW ORLEANS    CLEAR     49  39  68 SW8       30.10F
GULFPORT       CLEAR     43  34  70 CALM      30.06F
PASCAGOULA AP  CLEAR     40  35  83 W3        30.07F
PASCAGOULA*    NOT AVBL
HATTIESBURG    CLEAR     44  35  70 W3        30.04F
LAUREL         CLEAR     41  32  70 CALM      30.03F
MERIDIAN       CLEAR     33  31  92 S6        29.99F WCI  28
JACKSON        CLEAR     44  34  67 SW5       30.01F
MONTGOMERY     CLEAR     35  30  82 S6        29.99F WCI  30
TROY           CLEAR     35  29  78 CALM      30.00F
KINSTON*       NOT AVBL
GENEVA*        NOT AVBL
ASHFORD*         N/A     37  32  81 W5        29.99F
DOTHAN         CLEAR     39  33  79 NW7       30.03F
PANAMA CITY    CLEAR     39  34  82 NW5       30.03R

$$




USA.gov is the U.S. government's official web portal to all federal, state and local government web resources and services.